Date String (YYYY-MM-DD hh:mm:ss) UTC,Instrument flags,Ambient pressure (hPa),Sample flow (lpm),Bypass flow (lpm),Sample temperature (°C),Ambient temperature (°C),ASC tube jacket temperature (°C),LED temperature (°C),Box temperature (°C),Sample RH (%),Span deviation,Mass concentration (μg/m³),Mass concentration (μg/m³),Mass concentration (μg/m³)
DateTimeUTC,F1_M11,P_M11,Q1_M11,Q2_M11,T1_M11,T2_M11,T3_M11,T4_M11,T5_M11,U1_M11,ZSPAN_M11,X2_M11,X0_M11,X1_M11
2021-08-30 04:00:00,,0828.9,5.00,0.00,30.1,28.9,00.0,39.0,31.7,33.8,0001.6,0010.55,0020.83,0009.25
2021-08-30 04:01:00,,0828.9,5.00,0.00,30.1,28.9,00.0,39.0,31.7,33.8,0001.7,0010.57,0020.44,0009.29
2021-08-30 04:02:00,,0828.9,5.01,0.00,30.0,27.5,00.0,39.0,31.3,33.9,0001.6,0010.62,0020.42,0009.33
2021-08-30 04:03:00,,0828.9,4.99,0.00,29.9,26.3,00.0,39.0,31.0,34.1,0002.1,0010.66,0019.54,0009.37
2021-08-30 04:04:00,,0828.9,5.01,0.00,29.8,26.3,00.0,38.9,31.0,34.3,0002.3,0010.63,0017.80,0009.37
2021-08-30 04:05:00,,0828.9,5.00,0.00,29.7,26.7,00.0,38.9,31.0,34.4,0002.6,0010.61,0017.89,0009.37
2021-08-30 04:06:00,,0828.8,5.01,0.00,29.7,27.1,00.0,38.9,31.1,34.5,0002.5,0010.57,0017.96,0009.37
2021-08-30 04:07:00,,0828.9,4.99,0.00,29.7,27.5,00.0,38.8,31.2,34.5,0002.6,0010.61,0018.38,0009.39
2021-08-30 04:08:00,,0828.9,5.01,0.00,29.7,27.8,00.0,38.8,31.3,34.4,0002.5,0010.60,0017.92,0009.39
2021-08-30 04:09:00,,0828.9,5.01,0.00,29.7,28.0,00.0,38.8,31.3,34.3,0002.4,0010.55,0017.41,0009.39
2021-08-30 04:10:00,,0828.9,4.99,0.00,29.7,28.2,00.0,38.8,31.3,34.2,0002.6,0010.58,0018.10,0009.42
2021-08-30 04:11:00,,0828.8,5.00,0.00,29.8,28.4,00.0,38.8,31.4,34.0,0002.5,0010.61,0017.84,0009.43
2021-08-30 04:12:00,,0828.9,5.01,0.00,29.8,28.5,00.0,38.8,31.5,34.1,0002.4,0010.70,0017.96,0009.47
2021-08-30 04:13:00,,0828.8,4.99,0.00,29.8,28.6,00.0,38.8,31.5,33.9,0002.5,0010.69,0018.22,0009.52
2021-08-30 04:14:00,,0828.8,5.00,0.00,29.9,28.7,00.0,38.8,31.5,33.7,0002.5,0010.73,0018.43,0009.57
2021-08-30 04:15:00,,0828.8,4.99,0.00,29.9,28.8,00.0,38.9,31.6,33.5,0002.3,0010.76,0018.88,0009.64
2021-08-30 04:16:00,,0828.9,5.00,0.00,29.9,28.9,00.0,38.9,31.6,33.3,0002.1,0010.81,0019.21,0009.72
2021-08-30 04:17:00,,0828.8,5.01,0.00,29.9,28.3,00.0,38.9,31.5,33.1,0002.3,0010.93,0019.22,0009.83
2021-08-30 04:18:00,,0828.8,4.99,0.00,29.8,26.4,00.0,38.9,31.0,33.3,0002.5,0011.05,0020.25,0009.93
2021-08-30 04:19:00,,0828.8,5.00,0.00,29.6,25.5,00.0,38.8,30.7,33.4,0002.7,0011.19,0020.48,0010.05
2021-08-30 04:20:00,,0828.8,5.02,0.00,29.5,25.5,00.0,38.8,30.7,33.4,0002.6,0011.38,0021.37,0010.20
2021-08-30 04:21:00,,0828.8,4.98,0.00,29.4,26.0,00.0,38.7,30.7,33.7,0002.3,0011.49,0021.05,0010.34
2021-08-30 04:22:00,,0828.8,5.01,0.00,29.4,26.5,00.0,38.7,30.8,33.5,0002.3,0011.58,0020.78,0010.46
2021-08-30 04:23:00,,0828.8,5.01,0.00,29.4,27.0,00.0,38.6,30.9,33.4,0002.3,0011.68,0020.56,0010.56
2021-08-30 04:24:00,,0828.8,5.01,0.00,29.4,27.3,00.0,38.6,31.0,33.4,0002.3,0011.82,0020.45,0010.66
2021-08-30 04:25:00,,0828.8,5.01,0.00,29.4,27.6,00.0,38.6,31.1,33.7,0001.9,0011.90,0020.36,0010.74
2021-08-30 04:26:00,,0828.8,5.00,0.00,29.4,27.9,00.0,38.6,31.1,33.7,0001.8,0011.99,0020.11,0010.79
2021-08-30 04:27:00,,0828.8,5.00,0.00,29.5,28.1,00.0,38.6,31.2,33.6,0001.9,0012.05,0019.96,0010.81
2021-08-30 04:28:00,,0828.9,4.99,0.00,29.5,28.2,00.0,38.6,31.2,33.7,0001.5,0012.00,0020.18,0010.79
2021-08-30 04:29:00,,0828.8,4.98,0.00,29.5,28.3,00.0,38.6,31.3,33.6,0001.1,0011.95,0018.59,0010.77
2021-08-30 04:30:00,,0828.8,5.00,0.00,29.6,28.5,00.0,38.6,31.3,33.6,0000.8,0011.94,0018.84,0010.76
2021-08-30 04:31:00,,0828.8,5.01,0.00,29.6,28.5,00.0,38.6,31.4,33.5,0000.7,0011.87,0018.57,0010.70
2021-08-30 04:32:00,,0828.9,5.01,0.00,29.6,28.6,00.0,38.6,31.4,33.3,0001.0,0011.85,0018.37,0010.65
2021-08-30 04:33:00,,0828.9,5.00,0.00,29.7,28.7,00.0,38.7,31.5,33.3,0001.0,0011.75,0018.19,0010.60
2021-08-30 04:34:00,,0828.9,4.99,0.00,29.7,28.8,00.0,38.7,31.5,32.7,0000.8,0011.74,0018.57,0010.60
2021-08-30 04:35:00,,0828.9,5.01,0.00,29.8,28.8,00.0,38.7,31.6,33.1,0000.5,0011.74,0018.76,0010.58
2021-08-30 04:36:00,,0828.9,5.01,0.00,29.8,28.9,00.0,38.7,31.6,33.3,0000.7,0011.65,0018.60,0010.53
2021-08-30 04:37:00,,0828.8,5.00,0.00,29.8,27.8,00.0,38.7,31.3,33.1,0000.8,0011.61,0018.52,0010.50
2021-08-30 04:38:00,,0828.8,5.01,0.00,29.6,26.4,00.0,38.7,31.0,32.9,0000.7,0011.62,0018.73,0010.53
2021-08-30 04:39:00,,0828.8,5.00,0.00,29.5,26.2,00.0,38.7,30.9,32.6,0001.0,0011.78,0018.92,0010.65
2021-08-30 04:40:00,,0828.8,5.00,0.00,29.5,26.6,00.0,38.7,31.0,32.1,0001.3,0012.01,0019.31,0010.82
2021-08-30 04:41:00,,0828.8,4.99,0.00,29.4,27.0,00.0,38.6,31.0,31.9,0001.4,0012.15,0019.00,0011.00
2021-08-30 04:42:00,,0828.8,5.00,0.00,29.4,27.4,00.0,38.6,31.1,32.0,0001.7,0012.31,0018.79,0011.20
2021-08-30 04:43:00,,0828.8,5.00,0.00,29.5,27.7,00.0,38.6,31.1,32.0,0001.5,0012.49,0019.63,0011.40
2021-08-30 04:44:00,,0828.9,5.00,0.00,29.5,27.9,00.0,38.6,31.2,31.8,0001.5,0012.83,0020.39,0011.62
2021-08-30 04:45:00,,0829.1,4.99,0.00,29.5,28.1,00.0,38.6,31.2,31.6,0001.6,0013.02,0020.39,0011.80
2021-08-30 04:46:00,,0829.3,5.01,0.00,29.5,28.3,00.0,38.6,31.3,31.2,0001.8,0013.23,0020.33,0012.02
2021-08-30 04:47:00,,0829.3,4.99,0.00,29.6,28.4,00.0,38.6,31.4,31.0,0001.8,0013.53,0020.41,0012.31
2021-08-30 04:48:00,,0829.2,5.00,0.00,29.6,28.5,00.0,38.6,31.4,31.0,0001.8,0013.78,0020.61,0012.57
2021-08-30 04:49:00,,0828.8,5.00,0.00,29.6,28.6,00.0,38.6,31.4,31.1,0002.0,0014.00,0020.62,0012.78
2021-08-30 04:50:00,,0828.7,4.99,0.00,29.7,28.7,00.0,38.7,31.5,30.9,0002.2,0014.08,0020.62,0012.90
2021-08-30 04:51:00,,0828.7,4.99,0.00,29.7,28.7,00.0,38.7,31.5,30.9,0002.1,0014.11,0020.57,0012.97
2021-08-30 04:52:00,,0828.7,5.01,0.00,29.8,28.8,00.0,38.7,31.6,30.7,0002.2,0014.22,0021.47,0013.03
2021-08-30 04:53:00,,0828.7,4.99,0.00,29.8,28.8,00.0,38.7,31.6,30.6,0002.1,0014.33,0021.66,0013.08
2021-08-30 04:54:00,,0828.7,5.03,0.00,29.8,27.9,00.0,38.7,31.4,30.4,0002.2,0014.40,0021.20,0013.13
2021-08-30 04:55:00,,0829.2,4.99,0.00,29.6,26.4,00.0,38.7,31.0,30.4,0002.2,0014.41,0021.10,0013.18
2021-08-30 04:56:00,,0829.1,5.01,0.00,29.5,26.2,00.0,38.7,30.9,30.5,0002.2,0014.43,0021.01,0013.24
2021-08-30 04:57:00,,0829.1,5.00,0.00,29.5,26.6,00.0,38.7,31.0,30.6,0002.2,0014.45,0021.15,0013.27
2021-08-30 04:58:00,,0829.1,4.99,0.00,29.4,27.0,00.0,38.6,31.0,30.5,0002.5,0014.43,0021.32,0013.28
2021-08-30 04:59:00,,0829.1,5.01,0.00,29.4,27.3,00.0,38.6,31.1,30.4,0002.5,0014.51,0021.73,0013.34
